Wind_Speed
91 91 92 90 87 85 84 82 78 73 73 72 71 66 60 58 57 57 57 56 54 52 51 50 50 50 50 51 50 48 47 47 49 51 52 52 52 51 48 47 48 46 46 44 40 39 39 39 40 40 40 39 38 37 36 36 35 31 27 25 28 31
92 92 91 86 84 84 81 78 75 71 68 69 69 64 60 59 58 58 58 57 55 53 53 52 51 51 52 52 51 51 50 49 51 52 51 50 49 48 48 49 48 47 46 43 41 41 40 40 40 39 40 40 39 39 38 38 36 34 29 26 27 31
91 90 88 85 85 87 82 77 78 78 76 76 75 68 62 60 58 58 58 58 57 55 54 53 53 53 54 53 53 52 50 49 50 50 49 47 47 49 50 49 48 48 46 43 43 43 42 41 39 38 40 41 41 41 40 39 38 36 33 29 28 31
88 87 87 87 86 86 84 83 85 85 83 80 75 68 64 63 63 63 63 62 60 57 54 54 54 54 54 53 52 51 48 48 48 49 49 49 50 51 50 48 48 48 45 43 45 45 44 41 37 38 41 42 42 42 41 41 41 40 37 32 30 32
83 83 85 85 83 82 82 83 83 82 79 75 71 69 69 71 71 69 67 64 61 58 56 55 54 54 53 52 50 49 49 50 49 49 50 51 51 50 49 48 48 47 45 46 47 46 44 40 37 38 41 43 44 44 43 43 44 44 41 36 33 33
78 79 80 81 80 78 77 77 76 75 74 72 72 74 75 74 72 68 64 61 59 57 56 54 53 53 51 50 50 51 52 51 49 47 48 50 50 50 49 49 48 47 48 49 48 46 42 39 37 38 42 45 45 46 45 45 47 47 43 39 37 35
75 76 77 77 76 75 74 73 72 71 71 72 73 74 74 72 68 64 62 60 58 57 55 53 52 52 51 51 51 51 51 49 48 47 48 49 50 50 50 49 48 49 49 50 48 44 39 38 37 39 43 46 47 47 47 49 50 48 43 41 40 37
72 73 74 75 74 73 72 71 71 70 69 70 70 70 69 67 65 64 62 61 59 57 55 53 53 53 53 52 51 50 49 48 48 48 48 49 50 51 50 49 48 49 50 50 48 43 39 38 38 41 44 48 50 49 51 52 51 47 44 43 41 39
70 72 72 72 72 71 71 70 70 70 69 69 68 67 65 64 64 64 63 62 61 57 55 54 54 54 52 51 50 48 47 47 47 47 49 50 51 51 49 48 48 49 50 51 49 46 44 42 43 46 48 51 53 53 53 51 48 47 45 44 42 40
69 70 70 71 71 70 71 71 70 69 70 69 67 66 64 63 63 64 63 62 59 55 51 49 50 51 50 50 49 49 49 49 49 50 53 54 54 53 51 49 49 50 50 51 51 51 50 49 50 51 51 53 54 54 52 48 48 47 46 45 43 42
67 68 68 69 70 70 71 71 70 69 69 68 67 65 63 62 61 60 59 57 53 49 46 44 45 50 51 51 52 51 51 52 52 54 55 57 56 55 53 52 52 51 51 52 53 54 54 54 54 52 51 52 52 51 49 49 49 48 47 45 44 45
65 66 67 68 69 70 70 70 70 69 68 67 64 61 59 57 56 56 54 52 50 48 47 45 47 52 54 53 53 53 52 53 54 55 55 56 56 56 55 54 54 53 53 53 54 55 54 54 53 51 50 49 49 48 49 50 50 49 47 46 46 47
65 65 66 67 67 68 69 69 69 68 67 65 61 58 56 54 53 52 51 50 50 50 50 50 50 53 53 53 52 52 52 52 53 55 55 56 57 58 57 56 55 55 55 55 54 54 53 52 51 49 47 46 47 48 49 50 50 49 48 48 48 48
64 65 65 66 66 67 67 68 68 67 66 64 61 58 55 53 51 49 48 48 48 49 49 49 49 50 50 50 50 50 51 51 53 55 56 58 60 61 60 60 58 57 56 54 53 52 51 50 48 45 43 44 46 47 47 48 49 49 49 49 48 49
63 64 64 65 65 65 65 66 66 66 66 64 62 59 57 55 53 51 50 49 48 47 47 47 47 48 48 49 49 50 51 52 54 56 59 61 62 62 61 60 57 55 53 52 51 49 47 45 44 44 42 41 43 44 45 47 48 48 48 48 47 50
60 61 62 62 63 63 62 63 64 65 65 64 63 63 61 59 58 57 56 55 53 51 50 51 50 51 51 51 52 53 54 56 59 61 61 59 57 55 54 54 53 50 50 49 48 46 44 43 43 45 43 42 42 43 45 47 48 48 49 48 48 47
56 56 57 57 58 59 59 59 61 62 63 63 64 65 65 64 63 62 61 59 57 55 55 55 55 54 54 54 54 54 56 55 54 52 48 46 45 42 44 49 49 47 47 46 45 44 43 44 44 45 45 44 42 44 47 49 49 49 48 48 48 46
51 52 52 53 54 54 54 55 57 58 59 59 61 62 63 63 61 60 58 57 56 55 54 54 55 55 55 55 54 55 55 49 43 40 39 38 35 34 40 47 46 45 44 43 42 42 42 44 45 45 45 44 43 42 41 43 44 43 44 46 48 46
48 48 49 50 50 50 51 51 51 51 50 50 51 51 51 52 51 51 51 51 51 51 51 51 52 52 53 53 53 53 51 44 41 42 40 35 31 33 41 46 45 43 43 42 42 42 43 45 46 46 46 46 45 43 41 42 44 44 46 48 47 45
44 45 46 46 47 47 47 46 45 44 43 42 43 43 44 45 46 47 48 50 50 50 50 50 50 50 50 49 48 46 43 39 38 38 36 35 35 36 38 42 45 44 43 42 43 44 44 46 47 47 47 47 48 49 50 51 50 50 51 49 46 46
42 43 44 45 45 45 44 42 42 41 41 42 43 44 45 46 47 48 49 50 50 49 49 49 48 48 46 44 42 39 37 35 33 32 33 35 37 38 35 34 39 43 44 44 46 47 47 48 50 50 51 50 48 49 51 53 53 53 52 48 45 45
41 42 43 43 42 42 40 39 39 40 42 43 45 47 48 48 49 49 49 49 49 49 49 48 47 45 43 40 37 34 33 33 32 30 31 33 36 38 36 33 36 45 47 47 48 48 49 50 50 49 50 51 50 49 51 53 52 49 47 45 42 42
40 40 41 41 41 40 40 40 40 42 44 46 47 48 48 48 48 48 49 49 49 49 48 47 45 43 40 36 34 33 32 32 31 30 29 31 34 36 38 39 43 49 50 49 49 49 49 50 50 49 48 50 51 51 50 50 47 41 38 39 38 40
39 38 39 40 41 42 42 42 43 44 46 47 48 48 48 48 48 47 47 47 47 46 46 45 43 39 36 33 33 32 32 31 31 30 30 30 31 33 35 37 41 45 47 48 48 45 42 40 40 41 41 41 42 42 41 40 39 36 34 34 36 39
41 40 40 41 42 42 43 43 44 44 45 46 47 47 48 48 47 47 46 46 45 44 43 41 39 36 33 31 30 30 30 31 31 31 31 30 30 30 31 31 33 35 36 38 38 35 33 30 27 28 32 33 33 33 34 33 31 31 31 32 34 36
43 43 44 45 45 45 44 44 43 43 43 44 45 46 47 47 47 46 46 45 43 41 39 38 36 34 31 29 28 29 30 31 32 32 31 30 30 29 29 29 29 28 28 30 29 28 28 25 22 25 30 33 33 32 31 30 29 29 31 32 33 34
45 46 47 48 49 49 48 47 46 45 44 45 46 47 46 46 46 45 44 43 42 40 37 35 33 32 30 30 29 29 30 31 32 32 32 31 30 28 28 27 27 26 27 27 27 26 24 20 20 26 31 32 32 31 30 29 28 29 32 33 34 34
46 47 48 50 51 52 52 51 50 49 48 48 49 49 47 45 44 43 43 42 41 38 34 31 29 29 29 30 30 29 29 30 31 32 31 31 30 28 27 26 26 26 27 27 26 25 23 22 24 27 29 29 29 29 29 29 28 30 33 34 35 34
45 47 49 51 52 53 53 53 52 52 51 51 50 49 47 44 42 42 41 40 38 35 32 29 28 28 28 29 29 29 29 30 30 30 31 30 29 28 26 26 26 26 27 27 26 25 24 24 24 25 25 25 26 27 28 29 29 30 32 35 36 36
46 47 48 49 51 52 53 53 52 52 52 51 50 48 46 44 42 42 41 39 38 35 32 31 30 29 28 28 28 29 29 30 30 31 31 30 29 28 27 25 25 26 26 27 26 25 24 24 24 24 25 24 24 25 26 28 29 31 33 36 37 37
46 47 47 48 49 50 52 52 52 52 52 51 50 48 46 45 43 43 42 41 39 38 36 35 34 33 31 31 30 30 30 30 31 31 32 31 31 29 28 26 25 25 26 26 26 25 24 24 24 25 25 25 25 25 25 27 29 31 33 36 38 38
43 44 45 46 48 49 51 52 51 51 51 50 49 48 47 45 44 44 43 43 42 42 41 39 39 38 36 34 33 32 32 32 33 33 33 33 32 31 30 29 28 26 25 26 26 26 25 25 24 25 25 26 26 26 26 27 28 30 33 36 39 39
38 40 41 42 44 46 48 49 49 46 45 44 42 42 43 43 43 44 44 44 44 44 44 44 43 42 41 39 37 35 34 34 34 34 34 33 33 32 32 32 31 29 28 27 27 27 27 27 26 26 25 26 26 27 27 28 28 29 31 35 39 41
36 37 38 38 39 42 44 46 46 43 41 39 38 37 37 37 39 42 44 45 46 46 46 46 46 46 45 44 41 39 37 36 36 35 34 33 33 33 34 34 34 33 31 29 29 29 29 29 29 28 28 27 27 27 27 28 29 29 30 33 37 41
36 36 36 36 36 39 42 43 44 44 43 42 42 40 38 36 35 37 40 43 45 47 47 47 47 48 48 46 44 43 41 39 38 37 35 33 33 34 35 36 36 35 34 33 32 31 31 32 32 31 30 30 29 29 28 28 28 29 30 32 34 39
38 35 35 34 34 39 43 43 43 43 45 46 46 45 43 41 38 36 37 39 41 44 46 47 48 49 49 48 46 44 43 42 40 39 38 36 35 36 36 37 37 37 36 36 35 34 34 33 33 33 33 32 32 32 31 29 28 29 30 31 33 35
39 35 34 33 35 41 45 46 45 45 46 49 49 49 48 47 44 41 39 39 39 41 43 44 46 47 47 46 45 44 43 42 41 41 40 40 39 39 38 37 37 37 37 37 37 37 37 36 36 35 35 34 34 34 34 34 32 30 29 30 32 33
Wind_Direction
280 281 282 283 284 285 284 283 282 282 281 281 285 285 283 282 279 277 279 281 281 282 283 284 284 285 286 287 288 288 289 289 289 289 289 288 287 287 287 290 292 290 293 293 288 291 294 291 292 288 283 283 283 281 279 283 288 288 282 276 275 275
280 281 282 281 280 281 281 280 279 280 279 280 285 286 283 281 279 277 277 279 280 281 283 282 282 283 285 286 287 287 288 288 289 289 289 287 286 286 288 291 291 290 293 290 287 292 291 288 289 284 279 280 280 278 277 282 287 288 283 275 271 272
280 280 279 277 276 275 276 277 277 279 279 280 283 284 283 281 279 278 278 280 281 281 282 281 281 283 286 287 287 287 287 288 289 287 286 284 283 285 289 290 289 290 291 287 288 291 288 286 285 278 275 276 276 274 275 279 284 288 284 276 270 268
278 278 276 275 275 274 273 274 276 278 279 280 280 279 279 280 279 280 281 282 281 280 280 280 281 283 286 286 286 286 286 288 288 285 282 281 282 284 287 287 288 290 288 286 287 288 286 284 281 274 271 272 273 272 273 278 282 286 284 278 271 265
276 275 274 274 275 274 273 273 275 276 277 277 275 274 277 278 280 282 282 281 278 278 279 280 281 282 283 283 283 284 285 287 287 283 280 280 281 283 285 286 288 288 286 286 287 287 284 281 277 270 267 268 269 270 273 277 281 285 283 279 274 264
274 273 273 273 273 274 274 274 274 275 275 274 272 273 276 278 280 281 280 278 276 276 278 279 280 280 280 280 282 284 286 287 286 282 279 279 281 283 285 287 288 286 285 286 287 286 281 277 273 266 263 264 266 269 273 277 281 284 281 279 276 266
271 271 271 271 272 273 273 274 274 274 274 273 272 273 275 277 279 279 277 276 276 278 278 279 279 279 278 280 282 284 285 285 282 279 279 280 283 285 287 288 286 285 285 286 286 283 277 272 268 263 262 262 265 269 274 278 281 282 278 279 276 267
269 269 269 270 270 271 272 272 272 273 273 273 273 274 275 276 277 276 276 276 277 278 279 279 279 278 278 280 282 283 284 282 281 279 280 282 285 287 287 285 283 282 283 283 282 277 272 268 265 264 263 263 266 269 275 279 280 278 277 280 274 265
267 267 267 268 268 268 269 269 270 271 271 272 273 275 276 275 274 273 274 275 277 278 279 280 280 279 280 282 283 284 283 282 281 280 282 284 286 286 285 282 280 280 280 279 277 273 268 265 266 267 265 265 267 270 277 279 277 275 277 279 269 263
266 265 265 266 266 266 266 266 267 268 269 271 272 273 275 274 274 273 274 275 276 277 279 281 281 281 281 283 284 284 283 282 281 282 284 285 286 285 284 282 280 278 277 275 273 270 268 267 269 269 267 267 268 272 276 275 273 274 277 275 265 263
264 264 264 264 264 264 264 265 266 267 268 270 271 272 272 273 274 275 275 274 274 276 278 280 281 282 284 285 285 285 284 283 283 284 285 286 285 285 284 283 281 278 275 272 271 269 269 271 271 271 270 270 270 272 273 271 271 274 276 270 265 267
262 262 262 262 263 263 264 265 266 267 268 269 270 270 270 271 273 274 274 274 276 277 278 279 280 282 285 286 286 286 285 285 285 286 286 286 285 285 284 283 280 277 274 271 270 269 270 271 271 271 271 272 270 270 270 270 271 274 272 267 267 270
262 261 261 261 262 262 263 264 265 266 267 267 267 268 268 269 271 273 274 276 279 280 281 282 281 282 284 285 286 287 286 286 286 286 287 286 287 287 286 283 279 276 273 271 270 269 269 270 271 270 270 270 268 268 269 269 271 271 268 266 269 272
260 261 260 261 261 261 262 263 264 265 266 266 266 265 266 266 269 273 276 278 280 282 283 282 281 281 283 284 285 286 286 288 289 289 290 290 290 289 287 283 278 275 272 270 270 269 269 270 271 271 270 268 267 267 268 269 270 268 266 266 269 277
258 259 260 260 260 261 261 262 262 263 264 264 264 264 264 264 267 271 275 277 279 280 281 280 280 281 282 283 284 286 288 290 293 295 295 294 292 289 286 281 275 273 271 271 270 270 269 269 270 270 269 267 266 267 268 269 269 266 265 266 273 282
258 258 259 260 261 262 262 262 263 263 263 263 263 263 264 264 266 269 273 275 277 278 279 280 281 282 284 285 287 288 290 293 296 297 297 295 291 287 283 279 274 272 271 271 271 270 269 267 266 266 266 265 265 266 267 268 267 265 265 266 276 283
260 260 260 261 261 262 263 263 264 264 264 264 263 264 265 266 268 272 275 276 277 278 280 281 283 285 286 288 290 291 294 296 297 297 295 292 290 285 280 279 277 274 271 270 269 268 267 265 264 264 264 264 264 265 266 267 267 267 265 267 278 283
262 262 262 262 262 263 263 264 265 265 266 267 267 268 269 270 272 274 276 278 279 280 281 283 285 287 288 290 292 294 296 295 289 287 288 289 287 281 279 280 278 274 272 270 268 267 266 265 265 264 264 262 262 264 264 264 265 266 268 274 280 279
263 263 263 263 263 264 264 265 267 268 269 270 271 272 272 273 274 275 276 278 279 281 283 285 287 289 290 291 293 295 296 291 281 277 279 280 275 272 277 281 278 273 272 271 269 268 267 266 265 265 264 261 259 257 257 261 265 269 275 278 276 271
264 264 264 264 264 265 266 267 268 269 269 269 269 270 271 273 274 275 276 277 279 281 283 285 287 289 291 292 294 294 290 285 280 275 273 273 269 267 274 280 279 273 271 271 269 269 268 266 264 263 262 261 259 257 257 260 264 271 276 275 270 269
265 264 263 263 264 265 266 267 268 268 267 267 267 268 269 270 272 274 276 278 279 281 283 285 286 288 290 291 292 290 286 282 280 274 272 270 268 269 270 273 275 273 271 270 269 269 268 266 264 264 263 262 262 261 260 260 265 271 272 269 267 266
265 265 264 264 265 265 265 266 266 265 266 266 267 268 269 270 272 275 277 279 280 282 283 284 285 286 287 287 288 289 288 287 284 280 277 271 267 269 267 263 266 271 273 271 269 269 268 268 268 267 267 266 266 265 265 265 267 270 268 265 263 258
264 267 268 268 268 267 266 265 265 266 267 268 270 271 272 273 275 277 278 280 281 282 282 283 283 282 282 283 286 288 289 288 287 286 284 278 272 270 268 265 265 269 271 269 269 269 268 269 270 271 271 271 270 269 268 267 267 267 263 259 256 252
260 264 267 268 268 267 266 266 266 267 269 271 272 273 274 275 276 277 278 279 280 281 280 279 278 276 277 281 285 288 287 286 286 285 285 284 281 277 274 272 270 269 269 268 268 269 270 273 273 271 270 270 269 267 267 266 264 263 259 254 251 248
257 260 263 265 266 266 266 266 266 267 269 270 272 273 274 275 276 277 278 278 278 277 276 274 273 273 275 281 285 287 287 287 287 286 285 285 285 284 281 278 276 274 272 270 268 266 270 275 274 268 264 265 268 269 268 266 261 258 254 252 249 246
255 256 259 262 264 265 265 266 266 266 268 269 271 272 273 275 276 277 278 276 274 272 270 269 270 272 275 279 284 287 289 290 289 287 286 287 288 289 288 285 282 278 274 273 269 264 266 271 269 264 262 265 270 271 270 265 258 253 251 250 248 246
256 256 258 261 262 264 265 266 266 267 268 269 270 271 273 276 277 277 275 273 270 268 267 268 269 272 275 278 283 288 292 292 291 288 287 289 291 292 293 291 288 283 277 274 273 269 265 260 257 260 264 267 270 269 267 263 256 249 247 248 248 246
258 257 258 260 262 263 265 266 267 268 269 270 271 272 274 275 276 275 272 269 267 266 266 268 273 278 281 282 285 288 293 294 293 290 288 289 291 293 295 295 292 288 284 280 278 274 268 259 257 262 268 270 269 267 264 261 255 248 245 246 247 247
259 258 258 260 262 264 265 267 268 269 270 270 270 272 272 273 272 271 269 266 265 264 266 270 276 282 286 287 288 289 292 295 295 291 287 287 289 291 294 295 293 289 286 283 280 277 274 270 268 269 272 273 272 269 264 259 254 248 244 243 245 246
259 260 260 261 263 266 267 268 269 269 269 268 268 269 269 269 268 267 266 263 261 260 263 270 274 279 284 286 288 290 291 294 295 292 287 283 284 286 289 291 291 288 284 281 279 277 276 274 273 273 273 273 273 271 266 260 254 248 243 241 242 243
260 262 264 265 266 267 268 268 269 268 268 268 268 268 268 267 266 265 264 261 259 258 260 266 272 276 279 281 283 286 288 291 294 294 290 283 280 281 283 285 286 285 283 279 277 275 274 275 276 277 278 277 275 273 270 264 257 249 243 239 239 240
262 263 264 265 266 267 267 267 268 269 270 271 271 270 268 267 266 264 263 262 259 257 258 261 269 274 277 278 280 281 283 287 291 294 292 286 280 279 279 280 281 282 281 278 275 273 272 272 274 277 280 281 279 275 272 268 262 254 246 239 238 237
261 262 263 264 266 268 269 269 269 270 272 273 274 273 271 269 267 265 264 263 262 260 258 259 264 270 275 277 278 279 281 283 286 290 291 287 281 279 279 279 279 280 281 279 276 274 273 273 274 275 277 279 280 277 273 270 266 260 252 244 238 236
261 261 262 264 268 271 273 274 272 270 271 273 274 274 274 272 269 267 265 263 263 263 263 262 262 266 272 276 276 277 278 279 281 285 288 286 283 282 281 279 277 277 278 278 277 276 274 274 275 275 276 277 278 277 275 271 268 265 259 251 243 238
264 263 265 267 272 276 277 277 276 274 273 274 274 273 273 273 270 267 265 263 262 263 264 265 263 264 270 273 274 274 275 275 277 280 282 283 282 283 283 279 276 275 275 274 275 274 274 273 274 275 277 278 278 278 276 273 270 266 263 259 252 245
269 269 270 272 273 272 271 272 274 273 273 274 274 273 272 271 269 265 264 264 263 262 262 263 263 264 267 270 270 272 273 274 275 275 277 278 278 281 284 282 276 274 273 273 272 272 272 272 272 273 275 277 279 279 278 275 270 266 264 261 258 253
271 273 276 278 274 268 268 271 271 268 266 267 268 269 270 269 267 264 263 264 263 262 261 261 261 263 265 267 268 271 272 272 272 271 272 273 274 277 281 282 278 274 273 273 272 272 272 272 272 272 273 275 276 277 277 276 272 268 263 260 258 256
Height
10748 10745 10743 10743 10742 10739 10738 10739 10740 10742 10743 10744 10744 10744 10745 10746 10746 10746 10745 10744 10744 10745 10745 10744 10743 10742 10742 10742 10742 10741 10741 10740 10739 10738 10738 10738 10738 10739 10740 10742 10743 10743 10743 10744 10745 10746 10747 10746 10744 10740 10736 10736 10738 10740 10741 10742 10743 10744 10746 10746 10746 10744
10739 10738 10737 10734 10733 10730 10730 10731 10733 10736 10738 10738 10739 10739 10739 10740 10739 10739 10738 10738 10739 10739 10739 10738 10737 10737 10737 10737 10737 10737 10736 10736 10735 10734 10733 10733 10733 10734 10735 10737 10737 10738 10738 10739 10740 10741 10742 10742 10740 10736 10733 10732 10734 10735 10735 10737 10738 10739 10741 10742 10743 10741
10730 10731 10730 10724 10722 10724 10725 10726 10726 10729 10731 10732 10733 10734 10733 10733 10732 10732 10732 10733 10734 10734 10733 10732 10732 10732 10732 10733 10732 10732 10732 10731 10730 10729 10729 10729 10729 10729 10730 10731 10731 10732 10733 10734 10735 10736 10737 10737 10736 10732 10729 10728 10729 10730 10731 10732 10733 10735 10737 10738 10739 10738
10722 10721 10719 10713 10714 10717 10719 10720 10721 10723 10725 10726 10727 10727 10726 10726 10725 10726 10727 10728 10729 10728 10727 10726 10726 10727 10728 10728 10727 10727 10727 10727 10726 10725 10725 10724 10724 10725 10725 10725 10725 10726 10727 10729 10730 10730 10731 10732 10731 10728 10725 10724 10724 10725 10726 10727 10728 10730 10732 10734 10735 10735
10713 10710 10707 10705 10707 10710 10712 10714 10716 10717 10719 10720 10721 10720 10719 10718 10718 10720 10722 10723 10723 10722 10721 10721 10721 10722 10723 10722 10721 10722 10722 10722 10722 10721 10720 10720 10720 10720 10721 10721 10720 10720 10721 10723 10724 10725 10726 10727 10727 10725 10722 10720 10720 10721 10722 10723 10723 10725 10727 10729 10731 10731
10704 10701 10699 10699 10701 10703 10705 10707 10709 10711 10713 10714 10714 10713 10712 10712 10713 10715 10716 10717 10716 10715 10715 10716 10717 10717 10717 10717 10716 10716 10716 10716 10717 10716 10715 10715 10715 10715 10716 10716 10716 10715 10716 10717 10718 10720 10721 10721 10722 10721 10719 10717 10716 10717 10718 10718 10719 10720 10722 10724 10726 10727
10696 10693 10692 10693 10694 10697 10699 10701 10702 10705 10706 10707 10707 10707 10707 10708 10709 10710 10710 10709 10710 10710 10711 10712 10713 10712 10712 10712 10711 10711 10711 10711 10711 10712 10711 10710 10710 10710 10710 10711 10711 10710 10710 10711 10712 10713 10715 10716 10717 10717 10715 10713 10712 10713 10714 10714 10715 10716 10717 10719 10721 10722
10688 10686 10685 10687 10689 10691 10693 10695 10696 10698 10700 10700 10700 10701 10702 10704 10704 10704 10703 10704 10705 10706 10707 10708 10708 10707 10707 10707 10706 10705 10706 10706 10707 10707 10707 10706 10706 10705 10705 10705 10705 10705 10705 10705 10706 10707 10709 10711 10713 10713 10711 10709 10708 10709 10710 10710 10710 10711 10712 10714 10716 10716
10681 10679 10680 10681 10683 10686 10687 10690 10691 10693 10693 10693 10694 10695 10697 10699 10698 10698 10698 10699 10701 10702 10703 10704 10703 10702 10702 10702 10701 10701 10701 10701 10702 10702 10702 10702 10701 10701 10701 10701 10701 10701 10701 10700 10701 10702 10704 10706 10708 10708 10707 10705 10704 10705 10706 10706 10706 10706 10707 10709 10710 10711
10674 10673 10675 10677 10678 10680 10682 10684 10686 10687 10687 10688 10689 10691 10693 10693 10692 10692 10693 10695 10698 10699 10700 10699 10696 10695 10696 10696 10696 10697 10697 10697 10697 10698 10697 10697 10697 10696 10696 10696 10697 10697 10696 10696 10696 10697 10699 10700 10702 10703 10702 10700 10700 10701 10701 10701 10701 10702 10703 10704 10704 10705
10669 10668 10670 10672 10673 10674 10675 10677 10680 10682 10682 10683 10684 10686 10687 10687 10686 10687 10688 10690 10693 10695 10695 10694 10691 10688 10689 10691 10692 10692 10693 10693 10693 10693 10692 10691 10691 10691 10691 10691 10691 10691 10691 10691 10690 10691 10692 10694 10695 10696 10696 10695 10696 10696 10696 10696 10697 10697 10699 10699 10699 10700
10662 10663 10664 10666 10667 10668 10670 10672 10674 10677 10677 10678 10680 10681 10682 10681 10681 10683 10684 10685 10687 10689 10691 10693 10690 10685 10684 10686 10687 10688 10688 10689 10689 10688 10688 10686 10686 10685 10685 10684 10684 10684 10684 10684 10684 10685 10686 10687 10688 10689 10690 10690 10691 10691 10692 10692 10692 10693 10694 10694 10694 10695
10655 10657 10659 10660 10662 10664 10665 10667 10669 10671 10673 10674 10675 10676 10677 10677 10677 10678 10679 10679 10680 10682 10684 10688 10687 10682 10681 10682 10682 10683 10683 10684 10684 10684 10683 10682 10681 10680 10679 10678 10676 10676 10676 10677 10678 10679 10680 10681 10681 10683 10685 10685 10685 10686 10687 10687 10687 10688 10689 10689 10689 10690
10650 10651 10652 10654 10656 10658 10660 10662 10664 10666 10668 10669 10670 10671 10672 10672 10672 10672 10673 10674 10675 10676 10677 10679 10680 10678 10677 10677 10677 10678 10678 10679 10679 10679 10678 10677 10675 10673 10672 10670 10668 10668 10669 10670 10671 10673 10674 10675 10675 10677 10679 10680 10680 10681 10682 10683 10682 10683 10684 10684 10684 10684
10645 10646 10647 10648 10650 10653 10655 10658 10659 10662 10664 10664 10664 10665 10666 10667 10666 10666 10667 10668 10670 10671 10671 10671 10672 10672 10671 10671 10672 10673 10673 10673 10673 10673 10672 10670 10668 10666 10664 10662 10661 10661 10662 10663 10664 10666 10667 10668 10670 10671 10674 10675 10675 10676 10677 10678 10678 10678 10678 10679 10679 10679
10640 10641 10642 10643 10645 10647 10650 10652 10654 10657 10658 10659 10658 10658 10660 10661 10661 10661 10661 10662 10664 10666 10665 10665 10665 10665 10666 10666 10666 10667 10668 10668 10667 10666 10664 10662 10660 10659 10656 10655 10655 10655 10656 10657 10658 10659 10661 10663 10665 10666 10669 10671 10672 10672 10672 10672 10672 10672 10673 10674 10675 10675
10635 10636 10637 10639 10640 10642 10645 10647 10649 10651 10653 10653 10653 10653 10654 10655 10656 10656 10655 10656 10658 10659 10659 10659 10659 10659 10660 10660 10661 10662 10663 10665 10662 10659 10657 10654 10652 10652 10650 10649 10649 10650 10650 10651 10653 10654 10655 10658 10660 10662 10664 10667 10669 10669 10666 10665 10665 10667 10669 10671 10672 10671
10631 10632 10633 10634 10636 10638 10640 10643 10644 10646 10647 10648 10648 10648 10649 10650 10651 10652 10651 10652 10652 10653 10654 10654 10653 10653 10654 10655 10656 10657 10659 10662 10657 10651 10650 10648 10645 10646 10646 10645 10645 10645 10645 10646 10648 10649 10651 10653 10654 10656 10659 10663 10666 10665 10661 10657 10659 10663 10665 10667 10667 10665
10627 10628 10628 10629 10631 10633 10635 10638 10640 10642 10643 10644 10644 10645 10645 10646 10646 10647 10647 10647 10648 10648 10649 10649 10649 10648 10648 10649 10651 10651 10652 10653 10649 10645 10645 10642 10640 10641 10641 10641 10641 10640 10641 10642 10643 10645 10647 10648 10650 10651 10654 10657 10661 10661 10657 10653 10654 10658 10661 10661 10660 10658
10623 10623 10624 10626 10627 10629 10631 10634 10636 10638 10639 10640 10641 10641 10641 10641 10642 10642 10642 10643 10643 10644 10644 10645 10644 10644 10643 10644 10645 10646 10645 10644 10643 10642 10641 10639 10637 10637 10638 10638 10636 10636 10637 10637 10639 10640 10642 10643 10645 10646 10648 10650 10653 10654 10653 10651 10651 10653 10655 10655 10654 10652
10619 10619 10621 10622 10624 10626 10628 10631 10633 10634 10635 10636 10637 10638 10638 10638 10638 10638 10638 10638 10639 10640 10640 10641 10640 10640 10639 10639 10640 10640 10639 10639 10639 10639 10639 10638 10636 10635 10635 10635 10632 10632 10632 10633 10634 10636 10637 10638 10639 10641 10642 10643 10645 10646 10647 10647 10647 10648 10649 10649 10649 10649
10616 10616 10617 10619 10621 10623 10625 10628 10629 10631 10631 10632 10633 10633 10634 10634 10634 10634 10634 10634 10634 10635 10636 10636 10636 10636 10635 10634 10634 10634 10634 10634 10634 10634 10634 10633 10633 10632 10632 10632 10630 10628 10628 10629 10630 10631 10632 10632 10633 10634 10635 10635 10637 10639 10640 10641 10642 10643 10643 10643 10644 10645
10613 10613 10613 10615 10617 10619 10622 10625 10626 10627 10627 10627 10628 10628 10629 10630 10630 10630 10629 10628 10629 10629 10630 10631 10632 10632 10632 10631 10630 10630 10630 10629 10629 10628 10628 10628 10628 10628 10628 10629 10628 10625 10624 10625 10626 10627 10627 10627 10627 10627 10628 10628 10629 10631 10632 10634 10636 10637 10637 10638 10639 10640
10611 10610 10610 10611 10612 10615 10617 10620 10622 10623 10623 10623 10623 10623 10624 10624 10625 10625 10625 10624 10623 10624 10624 10625 10627 10628 10628 10628 10627 10627 10627 10626 10626 10625 10625 10625 10624 10624 10624 10624 10623 10621 10621 10621 10622 10623 10622 10622 10622 10622 10622 10622 10622 10624 10626 10627 10629 10631 10632 10634 10635 10636
10608 10608 10608 10607 10608 10610 10613 10615 10618 10619 10619 10619 10618 10618 10619 10619 10620 10620 10620 10620 10620 10620 10620 10620 10621 10623 10624 10624 10624 10624 10624 10623 10623 10622 10622 10622 10621 10621 10621 10620 10619 10618 10617 10617 10619 10620 10618 10618 10619 10618 10618 10618 10618 10619 10620 10622 10623 10625 10627 10629 10631 10632
10606 10607 10606 10605 10605 10606 10608 10610 10613 10614 10615 10614 10614 10614 10615 10616 10617 10616 10616 10616 10616 10616 10616 10616 10616 10617 10618 10619 10619 10620 10620 10619 10619 10618 10618 10618 10618 10617 10616 10616 10616 10615 10614 10614 10615 10616 10615 10615 10616 10616 10615 10614 10615 10616 10616 10617 10619 10621 10622 10624 10626 10628
10603 10604 10604 10602 10602 10602 10603 10605 10607 10609 10610 10609 10609 10610 10611 10613 10614 10613 10612 10612 10611 10611 10612 10612 10612 10612 10613 10614 10614 10615 10616 10615 10615 10614 10614 10614 10613 10613 10612 10612 10612 10612 10611 10611 10611 10612 10612 10612 10613 10613 10612 10611 10611 10612 10612 10613 10615 10616 10618 10620 10622 10624
10600 10600 10600 10598 10598 10598 10598 10600 10601 10603 10604 10604 10604 10606 10608 10609 10609 10609 10609 10608 10607 10607 10607 10607 10608 10608 10609 10609 10610 10611 10611 10611 10611 10610 10610 10610 10609 10609 10609 10608 10608 10608 10608 10608 10608 10609 10610 10610 10610 10610 10609 10608 10608 10608 10608 10609 10611 10612 10614 10616 10617 10619
10595 10595 10595 10593 10593 10593 10593 10594 10596 10597 10598 10599 10600 10602 10604 10605 10605 10604 10604 10604 10604 10603 10603 10603 10604 10604 10604 10605 10605 10606 10606 10607 10607 10606 10606 10606 10606 10606 10605 10605 10604 10604 10604 10605 10605 10605 10605 10606 10606 10605 10605 10605 10605 10605 10605 10606 10607 10609 10611 10612 10614 10616
10589 10589 10589 10589 10589 10588 10588 10589 10590 10591 10592 10593 10596 10598 10599 10600 10600 10599 10599 10600 10600 10600 10599 10599 10600 10601 10601 10601 10601 10601 10602 10602 10602 10602 10602 10602 10603 10602 10602 10602 10602 10601 10601 10601 10601 10602 10602 10602 10602 10602 10602 10602 10602 10602 10602 10603 10604 10605 10607 10608 10610 10612
10584 10584 10584 10585 10584 10583 10582 10582 10583 10583 10584 10587 10590 10592 10594 10595 10595 10595 10595 10596 10596 10596 10596 10596 10596 10597 10597 10598 10598 10598 10598 10598 10598 10598 10598 10598 10599 10599 10599 10599 10598 10598 10598 10598 10598 10598 10598 10598 10598 10598 10598 10599 10599 10599 10599 10599 10600 10601 10603 10604 10606 10608
10581 10581 10581 10580 10580 10578 10577 10576 10578 10578 10578 10580 10583 10585 10587 10589 10590 10590 10590 10591 10591 10591 10592 10592 10592 10592 10593 10594 10594 10594 10594 10594 10594 10594 10594 10594 10594 10594 10594 10594 10594 10594 10594 10594 10594 10595 10595 10595 10595 10595 10595 10595 10596 10596 10596 10596 10597 10597 10598 10600 10602 10604
10579 10578 10577 10577 10577 10576 10574 10573 10575 10575 10574 10574 10576 10577 10579 10582 10583 10584 10584 10585 10585 10586 10587 10587 10588 10588 10588 10588 10589 10589 10589 10589 10589 10590 10589 10589 10589 10589 10589 10589 10590 10590 10590 10590 10590 10590 10590 10591 10591 10591 10591 10592 10592 10592 10593 10593 10593 10594 10594 10596 10597 10600
10576 10576 10576 10576 10576 10575 10572 10571 10571 10572 10571 10570 10570 10571 10573 10576 10577 10577 10578 10579 10579 10580 10581 10582 10583 10583 10583 10583 10583 10583 10584 10584 10584 10585 10585 10584 10584 10584 10585 10585 10585 10585 10586 10586 10586 10586 10586 10586 10587 10587 10587 10588 10588 10589 10589 10590 10590 10591 10591 10592 10593 10595
10572 10573 10575 10576 10577 10573 10568 10567 10567 10567 10566 10565 10565 10566 10568 10569 10571 10572 10572 10573 10573 10574 10575 10576 10577 10578 10578 10578 10577 10577 10578 10578 10579 10580 10580 10580 10580 10580 10580 10580 10580 10580 10581 10581 10582 10582 10582 10582 10582 10583 10583 10584 10584 10585 10586 10586 10587 10588 10588 10589 10590 10591
10567 10571 10574 10576 10576 10570 10563 10563 10563 10563 10562 10561 10559 10560 10562 10563 10565 10567 10567 10567 10568 10569 10569 10570 10571 10572 10573 10573 10573 10572 10572 10573 10573 10574 10574 10575 10575 10575 10575 10575 10575 10575 10576 10576 10577 10577 10577 10577 10578 10578 10579 10580 10580 10581 10581 10582 10583 10584 10585 10585 10586 10587
10563 10569 10572 10575 10573 10565 10560 10561 10560 10560 10559 10557 10555 10555 10555 10556 10558 10560 10561 10562 10563 10564 10564 10565 10566 10567 10567 10567 10567 10567 10567 10567 10567 10568 10568 10569 10569 10570 10570 10570 10570 10570 10571 10571 10571 10571 10572 10572 10573 10574 10574 10575 10575 10576 10576 10577 10578 10579 10580 10581 10582 10583